Regional Weather Roundup
Issued by NWS Goodland, KS

Home | Current Version | Previous Version | Graphics & Text | Print | Product List | Glossary On
Versions: 1 2 3 4 5 6 7 8 9 10 11 12 13 14 15 16 17 18 19 20 21 22 23 24 25 26 27 28 29 30 31 32 33 34 35 36 37 38 39 40 41 42 43 44 45 46 47 48 49 50
000
ASUS43 KGLD 172108
RWRGLD

GOODLAND FORECAST AREA HOURLY WEATHER ROUNDUP
NATIONAL WEATHER SERVICE GOODLAND KS
300 PM MDT THU AUG 17 2017

...OFFICIAL OBSERVATIONS...

CITY           SKY/WX    TMP DP  RH WIND       PRES   REMARKS
GOODLAND KS    SUNNY     84  59  42 S16G24    30.05F
HILL CITY KS   SUNNY     90  49  24 VRB3      30.01F
IMPERIAL NEB   SUNNY     88  54  31 SW14G23   30.00F
MCCOOK NEB     MOSUNNY   87  57  35 S7        29.99F
AKRON CO       SUNNY     86  37  17 W12       30.08S
BURLINGTON CO  SUNNY     82  58  43 S8        30.08F
LIMON CO       PTSUNNY   82  46  28 SE5       30.13F
$$

...UNOFFICIAL OBSERVATIONS...

CITY           SKY/WX    TMP DP  RH WIND       PRES   REMARKS
LENORA KS        N/A     87  32  14 CALM        N/A
NORTON KS      SUNNY     90  43  19 S9        30.00S
SHARON SPRINGS   N/A     86  61  42 S18         N/A
TRENTON NEB      N/A     89  32  13 S7          N/A
KIT CARSON CO    N/A     85  55  35 CALM        N/A
YUMA CO        FAIR      86  18   8 NW6       30.03S
$$



USA.gov is the U.S. government's official web portal to all federal, state and local government web resources and services.